Location: Marcé
(47.5801°N, 0.3280°W)
Time: 09:57:23
(UTC+01:00)

Vanguard 3 - Pass Details

Date: 15 December 2021
Orbit: 508 x 3260 km, 33.3° (Epoch: 24 January)

Event Time Altitude Azimuth Distance (km) Brightness Sun altitude
Rises 04:41:57 0° 262° (W) 6,433 - -39.4°
Reaches altitude 10° 04:46:02 10° 257° (WSW) 5,681 - -38.7°
Exits shadow 04:58:28 43° 222° (SW) 4,029 10.2 -36.6°
Maximum altitude 05:03:23 49° 190° (S) 3,854 10.3 -35.8°
Drops below altitude 10° 05:20:49 10° 123° (ESE) 5,695 12.0 -32.9°
Sets 05:24:55 0° 119° (ESE) 6,448 12.6 -32.2°
